• In Uzbekistan
  • List of Countries
  • For 7 days
  • Water Temperature
  • Satellite Maps
  • Weather Map
  • Weather Widgets
  • user-avatar
    Login

    Hourly Weather Kitzbuhel

    Today, 24 March, Sunday

    Time Temperature Precipitation Wind Pressure Humidity
    00:00 +5°C° 0 mm 2 mps 682 mmHg 84%
    01:00 +5°C° 0 mm 2 mps 681 mmHg 81%
    02:00 +5°C° 0 mm 2 mps 681 mmHg 81%
    03:00 +4°C° 0 mm 2 mps 681 mmHg 80%
    04:00 +4°C° 0 mm 2 mps 681 mmHg 80%
    05:00 +4°C° 0 mm 2 mps 681 mmHg 79%
    06:00 +4°C° 0 mm 2 mps 681 mmHg 78%
    07:00 +5°C° 0 mm 2 mps 681 mmHg 76%
    08:00 +8°C° 0 mm 1 mps 681 mmHg 72%
    09:00 +11°C° 0 mm 1 mps 681 mmHg 68%
    10:00 +13°C° 0 mm 0 mps 681 mmHg 64%
    11:00 +15°C° 0 mm 1 mps 681 mmHg 62%
    12:00 +15°C° 0 mm 1 mps 680 mmHg 59%
    13:00 +16°C° 0 mm 1 mps 680 mmHg 56%
    14:00 +16°C° 0 mm 1 mps 680 mmHg 60%
    15:00 +15°C° 0 mm 1 mps 679 mmHg 63%
    16:00 +15°C° 0 mm 1 mps 679 mmHg 67%
    17:00 +12°C° 0 mm 1 mps 678 mmHg 75%
    18:00 +10°C° 0 mm 1 mps 678 mmHg 83%
    19:00 +7°C° 0 mm 0 mps 678 mmHg 91%
    20:00 +7°C° 0.1 mm 0 mps 678 mmHg 92%
    21:00 +8°C° 0.1 mm 1 mps 678 mmHg 93%
    22:00 +7°C° 0.1 mm 1 mps 678 mmHg 94%
    23:00 +7°C° 0.2 mm 1 mps 678 mmHg 95%

    Tomorrow, 25 March, Monday

    Time Temperature Precipitation Wind Pressure Humidity
    00:00 +7°C° 0.2 mm 1 mps 678 mmHg 97%
    01:00 +5°C° 0.2 mm 0 mps 678 mmHg 98%
    02:00 +5°C° 0.1 mm 0 mps 677 mmHg 98%
    03:00 +6°C° 0.1 mm 1 mps 677 mmHg 98%
    04:00 +5°C° 0.1 mm 1 mps 677 mmHg 98%
    05:00 +5°C° 0.2 mm 1 mps 677 mmHg 97%
    06:00 +6°C° 0.2 mm 1 mps 677 mmHg 97%
    07:00 +6°C° 0.2 mm 1 mps 677 mmHg 97%
    08:00 +6°C° 0.3 mm 1 mps 676 mmHg 95%
    09:00 +5°C° 0.3 mm 2 mps 676 mmHg 93%
    10:00 +5°C° 0.3 mm 2 mps 676 mmHg 91%
    11:00 +5°C° 0.3 mm 2 mps 675 mmHg 90%
    12:00 +4°C° 0.3 mm 2 mps 675 mmHg 89%
    13:00 +4°C° 0.3 mm 2 mps 675 mmHg 88%
    14:00 +3°C° 0.6 mm 2 mps 674 mmHg 89%
    15:00 +3°C° 0.6 mm 2 mps 674 mmHg 89%
    16:00 +2°C° 0.6 mm 2 mps 674 mmHg 90%
    17:00 +1°C° 1.1 mm 2 mps 674 mmHg 92%
    18:00 +1°C° 1.1 mm 2 mps 675 mmHg 94%
    19:00 -1°C° 1.1 mm 3 mps 675 mmHg 95%
    20:00 -2°C° 0.5 mm 3 mps 676 mmHg 95%
    21:00 -2°C° 0.5 mm 3 mps 677 mmHg 94%
    22:00 -4°C° 0.5 mm 3 mps 677 mmHg 94%
    23:00 -3°C° 0.6 mm 2 mps 678 mmHg 95%

    Day after tomorrow, 26 March, Tuesday

    Time Temperature Precipitation Wind Pressure Humidity
    00:00 -3°C° 0.6 mm 2 mps 678 mmHg 95%
    01:00 -2°C° 0.6 mm 1 mps 679 mmHg 96%
    02:00 -2°C° 0.2 mm 1 mps 679 mmHg 96%
    03:00 -2°C° 0.2 mm 1 mps 679 mmHg 96%
    04:00 -2°C° 0.2 mm 1 mps 680 mmHg 96%
    05:00 -2°C° 0.1 mm 1 mps 680 mmHg 95%
    06:00 -2°C° 0.1 mm 1 mps 680 mmHg 94%
    07:00 -2°C° 0.1 mm 1 mps 681 mmHg 93%
    08:00 -1°C° 0.1 mm 1 mps 681 mmHg 88%
    09:00 +1°C° 0.1 mm 1 mps 682 mmHg 83%
    10:00 +2°C° 0.1 mm 1 mps 682 mmHg 78%
    11:00 +2°C° 0 mm 1 mps 682 mmHg 78%
    12:00 +3°C° 0 mm 1 mps 682 mmHg 77%
    13:00 +4°C° 0 mm 1 mps 682 mmHg 76%
    14:00 +3°C° 0 mm 1 mps 682 mmHg 76%
    15:00 +3°C° 0 mm 1 mps 681 mmHg 77%
    16:00 +3°C° 0 mm 1 mps 681 mmHg 78%
    17:00 +2°C° 0 mm 1 mps 681 mmHg 82%
    18:00 0°C° 0 mm 1 mps 681 mmHg 87%
    19:00 -2°C° 0 mm 0 mps 681 mmHg 91%
    20:00 -2°C° 0 mm 1 mps 682 mmHg 92%
    21:00 -2°C° 0 mm 1 mps 682 mmHg 92%
    22:00 -3°C° 0 mm 1 mps 682 mmHg 92%
    23:00 -3°C° 0 mm 1 mps 682 mmHg 91%

    27 March, Wednesday

    Time Temperature Precipitation Wind Pressure Humidity
    00:00 -3°C° 0 mm 1 mps 682 mmHg 90%
    01:00 -3°C° 0 mm 1 mps 682 mmHg 89%
    02:00 -3°C° 0 mm 1 mps 682 mmHg 88%
    03:00 -2°C° 0 mm 1 mps 682 mmHg 88%
    04:00 -2°C° 0 mm 1 mps 682 mmHg 87%
    05:00 -2°C° 0 mm 1 mps 682 mmHg 87%
    06:00 -2°C° 0 mm 0 mps 683 mmHg 87%
    07:00 -2°C° 0 mm 0 mps 683 mmHg 86%
    08:00 +1°C° 0.1 mm 1 mps 683 mmHg 85%
    09:00 +2°C° 0.1 mm 1 mps 683 mmHg 84%
    10:00 +3°C° 0.1 mm 1 mps 684 mmHg 83%
    11:00 +3°C° 0.1 mm 1 mps 683 mmHg 82%
    12:00 +4°C° 0.1 mm 1 mps 683 mmHg 81%
    13:00 +4°C° 0.1 mm 1 mps 683 mmHg 80%
    14:00 +4°C° 0.1 mm 1 mps 683 mmHg 81%
    15:00 +4°C° 0.1 mm 1 mps 683 mmHg 82%
    16:00 +4°C° 0.1 mm 1 mps 683 mmHg 83%
    17:00 +3°C° 0 mm 1 mps 683 mmHg 87%
    18:00 +2°C° 0 mm 1 mps 683 mmHg 91%
    19:00 0°C° 0 mm 0 mps 683 mmHg 95%
    20:00 -1°C° 0 mm 0 mps 683 mmHg 95%
    21:00 0°C° 0 mm 1 mps 684 mmHg 95%
    22:00 -1°C° 0 mm 1 mps 684 mmHg 94%
    23:00 -1°C° 0 mm 1 mps 684 mmHg 94%

    28 March, Thursday

    Time Temperature Precipitation Wind Pressure Humidity
    00:00 -1°C° 0 mm 1 mps 684 mmHg 93%
    01:00 -2°C° 0 mm 1 mps 684 mmHg 92%
    02:00 -2°C° 0 mm 1 mps 684 mmHg 91%
    03:00 -2°C° 0 mm 1 mps 684 mmHg 91%
    04:00 -2°C° 0 mm 1 mps 684 mmHg 91%
    05:00 -2°C° 0 mm 1 mps 684 mmHg 89%
    06:00 -1°C° 0 mm 1 mps 684 mmHg 88%
    07:00 0°C° 0 mm 1 mps 684 mmHg 87%
    08:00 +2°C° 0 mm 1 mps 685 mmHg 83%
    09:00 +4°C° 0 mm 1 mps 685 mmHg 80%
    10:00 +6°C° 0 mm 1 mps 685 mmHg 77%
    11:00 +6°C° 0.1 mm 1 mps 685 mmHg 77%
    12:00 +6°C° 0.1 mm 1 mps 684 mmHg 77%
    13:00 +7°C° 0.1 mm 1 mps 684 mmHg 78%
    14:00 +7°C° 0.1 mm 1 mps 684 mmHg 78%
    15:00 +7°C° 0.1 mm 1 mps 684 mmHg 78%
    16:00 +7°C° 0.1 mm 1 mps 683 mmHg 79%
    17:00 +5°C° 0 mm 1 mps 683 mmHg 84%
    18:00 +3°C° 0 mm 1 mps 683 mmHg 89%
    19:00 +1°C° 0 mm 0 mps 683 mmHg 94%
    20:00 0°C° 0 mm 0 mps 683 mmHg 94%
    21:00 +1°C° 0 mm 1 mps 684 mmHg 94%
    22:00 +1°C° 0 mm 1 mps 684 mmHg 94%
    23:00 0°C° 0 mm 1 mps 684 mmHg 93%

    29 March, Friday

    Time Temperature Precipitation Wind Pressure Humidity
    00:00 0°C° 0 mm 1 mps 684 mmHg 92%
    01:00 0°C° 0 mm 1 mps 684 mmHg 91%
    02:00 0°C° 0 mm 1 mps 684 mmHg 90%
    03:00 0°C° 0 mm 1 mps 684 mmHg 89%
    04:00 0°C° 0 mm 1 mps 684 mmHg 88%
    05:00 0°C° 0 mm 1 mps 684 mmHg 87%
    06:00 0°C° 0 mm 1 mps 684 mmHg 85%
    07:00 +1°C° 0 mm 1 mps 684 mmHg 83%
    08:00 +3°C° 0 mm 1 mps 684 mmHg 78%
    09:00 +6°C° 0 mm 1 mps 685 mmHg 73%
    10:00 +8°C° 0 mm 1 mps 685 mmHg 68%
    11:00 +9°C° 0 mm 1 mps 684 mmHg 67%
    12:00 +10°C° 0 mm 1 mps 684 mmHg 66%
    13:00 +10°C° 0 mm 1 mps 684 mmHg 65%
    14:00 +10°C° 0 mm 1 mps 684 mmHg 68%
    15:00 +10°C° 0 mm 1 mps 683 mmHg 71%
    16:00 +9°C° 0 mm 1 mps 683 mmHg 74%
    17:00 +7°C° 0 mm 1 mps 682 mmHg 80%
    18:00 +5°C° 0 mm 1 mps 682 mmHg 87%
    19:00 +2°C° 0 mm 0 mps 682 mmHg 94%
    20:00 +3°C° 0 mm 1 mps 682 mmHg 92%
    21:00 +3°C° 0 mm 1 mps 682 mmHg 91%
    22:00 +1°C° 0 mm 2 mps 683 mmHg 89%
    23:00 +1°C° 0 mm 2 mps 683 mmHg 87%
    Show more